Location: Sawmill Trailhead
(33.5800°N, 116.4497°W)
Time: 15:03:48
(UTC-07:00)

Amateur Radio Satellites - All Passes

Search period start: 29 July 2015 14:33
Search period end: 30 July 2015 14:33
Location: Sawmill Trailhead, 33.5800°N, 116.4497°W

Satellite Date Start Highest point End Downlink Frequencies (MHz)
Time Altitude Azimuth
Gurwin Techsat 1B 29 Jul 14:36:31 14:41:49 76° 258° (WSW) 14:47:10 435.225
ITUPSAT 1 29 Jul 14:37:44 14:42:32 87° 107° (ESE) 14:47:18 437.325
AO-7 29 Jul 15:10:00 15:17:44 45° 67° (ENE) 15:25:36 29.400- 29.500
ITAMSAT 1 29 Jul 15:16:40 15:21:22 33° 263° (W) 15:26:01 435.822/435.867
STARS 29 Jul 15:19:35 15:22:56 22° 95° (E) 15:26:23 437.465
CUSAT 1 29 Jul 15:26:38 15:30:38 45° 81° (E) 15:35:55 437.405
BEESAT 29 Jul 15:36:49 15:40:28 22° 291° (WNW) 15:43:59 436.000
Cosmos 2504 29 Jul 15:37:47 15:45:25 38° 271° (W) 15:53:01 435.465 / 435.565
HORYU 2 29 Jul 15:38:06 15:42:23 51° 74° (ENE) 15:46:44 437.375
KKS-1 29 Jul 15:38:11 15:42:37 65° 101° (E) 15:47:02 437.445
JAS-2 29 Jul 15:56:30 16:02:02 47° 263° (W) 16:08:16 435.910
GONETS M04 29 Jul 15:57:01 15:59:40 12° 62° (ENE) 16:03:08
SWISSCUBE 29 Jul 15:58:27 16:00:25 12° 294° (WNW) 16:02:07 437.505
MOZHAYETS 4 29 Jul 16:09:17 16:11:42 14° 91° (E) 16:14:20
DANDE 29 Jul 16:28:10 16:31:52 56° 263° (W) 16:36:49 436.750
STARS 29 Jul 16:55:36 16:59:22 27° 288° (WNW) 17:03:02 437.465
AO-7 29 Jul 17:03:08 17:10:40 35° 262° (W) 17:18:03 29.400- 29.500
Cubesat XI-IV 29 Jul 17:07:19 17:10:23 16° 66° (ENE) 17:13:41 437.490
CUSAT 1 29 Jul 17:10:59 17:13:15 13° 264° (W) 17:15:27 437.405
HORYU 2 29 Jul 17:17:57 17:19:23 11° 269° (W) 17:20:32 437.375
Cosmos 2499 29 Jul 17:39:51 17:43:51 14° 64° (ENE) 17:48:35 435.465 / 435.565
MOZHAYETS 4 29 Jul 17:44:47 17:49:11 43° 286° (WNW) 17:53:30
GONETS M04 29 Jul 17:49:31 17:58:15 78° 82° (E) 18:07:01
CUBESAT XI-V 29 Jul 17:55:04 17:57:47 16° 92° (E) 18:00:42 437.345
PCSat 29 Jul 17:56:28 17:58:58 13° 48° (NE) 18:01:44 145.827
CUTE-I 29 Jul 18:01:41 18:06:54 55° 74° (ENE) 18:12:09 437.470
SO-50 29 Jul 18:14:20 18:17:40 18° 48° (NE) 18:21:07 436.795
Cubesat XI-IV 29 Jul 18:44:48 18:50:04 56° 259° (W) 18:55:21 437.490
VERMONT LUNAR 29 Jul 18:48:58 18:52:03 52° 151° (SSE) 18:55:10 437.305
STRAND 1 29 Jul 18:53:54 18:57:39 21° 94° (E) 19:01:32 437.568
BRITE-PL 29 Jul 19:04:52 19:08:25 24° 73° (ENE) 19:11:55 437.365/2234.400
Cosmos 2499 29 Jul 19:29:40 19:38:29 83° 83° (E) 19:47:23 435.465 / 435.565
GOMX 1 29 Jul 19:29:57 19:33:24 24° 73° (ENE) 19:36:52 467.674
CUBESAT XI-V 29 Jul 19:31:08 19:35:25 38° 286° (WNW) 19:39:38 437.345
DOVE 4 29 Jul 19:33:08 19:35:24 15° 70° (ENE) 19:37:51 437.250
CUTE 1.7 + AOD 2 29 Jul 19:35:33 19:37:26 13° 69° (ENE) 19:39:32 437.475
PCSat 29 Jul 19:37:41 19:43:07 79° 246° (WSW) 19:48:31 145.827
SEEDS 29 Jul 19:38:15 19:39:07 11° 68° (ENE) 19:40:14 437.485
CANX-2 29 Jul 19:42:30 19:45:18 18° 70° (ENE) 19:48:16 2200.000
CUTE-I 29 Jul 19:44:14 19:47:23 15° 269° (W) 19:50:14 437.470
HO-68 29 Jul 19:44:29 19:50:45 36° 67° (ENE) 19:57:10 435.675
RS-15 29 Jul 19:46:25 19:50:13 13° 101° (E) 19:55:11 29.354- 29.394
GONETS M04 29 Jul 19:48:49 19:54:17 17° 277° (W) 19:59:11
SO-50 29 Jul 19:53:48 19:58:34 50° 245° (WSW) 20:03:11 436.795
PHONESAT 2.4 29 Jul 19:55:28 19:58:16 23° 145° (SE) 20:01:08 2401.200-2431.200
CINEMA 3 29 Jul 20:02:58 20:04:54 13° 69° (ENE) 20:07:03 145.822/145.860
AAUSAT CUBESAT 2 29 Jul 20:09:48 20:12:28 17° 70° (ENE) 20:15:16 437.432
PRISM 29 Jul 20:11:46 20:15:49 56° 285° (WNW) 20:19:48 437.425
VERMONT LUNAR 29 Jul 20:25:58 20:28:54 32° 346° (NNW) 20:31:49 437.305
STRAND 1 29 Jul 20:32:18 20:36:58 36° 288° (WNW) 20:41:34 437.568
UWE-3 29 Jul 20:42:14 20:44:08 13° 69° (ENE) 20:46:16 435.000/436.395/437.385
BRITE-PL 29 Jul 20:43:11 20:46:55 24° 264° (W) 20:50:23 437.365/2234.400
FUNcube-1 29 Jul 20:48:17 20:49:23 11° 68° (ENE) 20:50:46 145.935
CUBEBUG 2 29 Jul 20:50:43 20:53:52 22° 71° (ENE) 20:57:10 437.445
COMPASS 1 29 Jul 20:59:42 21:03:53 86° 79° (ENE) 21:08:08 437.405
Oscar 11 29 Jul 21:03:02 21:06:49 32° 73° (ENE) 21:10:43 145.826/435.025
GOMX 1 29 Jul 21:08:12 21:11:33 21° 265° (W) 21:14:42 467.674
CUTE 1.7 + AOD 2 29 Jul 21:08:56 21:12:59 43° 262° (W) 21:17:05 437.475
DOVE 4 29 Jul 21:09:06 21:12:59 34° 262° (W) 21:16:45 437.250
SEEDS 29 Jul 21:10:21 21:14:29 53° 261° (W) 21:18:39 437.485
M-CUBED/EXP-1 PRIME 29 Jul 21:16:22 21:18:58 15° 95° (E) 21:21:47 437.505
CANX-2 29 Jul 21:17:13 21:21:01 30° 264° (W) 21:24:48 2200.000
Cosmos 2499 29 Jul 21:25:21 21:30:49 17° 277° (W) 21:35:44 435.465 / 435.565
DX 1 29 Jul 21:31:01 21:31:57 11° 67° (ENE) 21:33:09 434.975-435.025
HO-68 29 Jul 21:31:54 21:38:26 37° 262° (W) 21:44:54 435.675
PHONESAT 2.4 29 Jul 21:32:36 21:36:04 62° 337° (NNW) 21:39:34 2401.200-2431.200
HUMSAT D 29 Jul 21:32:57 21:35:19 15° 70° (ENE) 21:37:52 437.325/437.525
CINEMA 3 29 Jul 21:37:58 21:41:50 37° 263° (W) 21:45:42 145.822/145.860
ISS 29 Jul 21:40:34 21:43:49 79° 319° (NW) 21:47:04 145.825
AAUSAT CUBESAT 2 29 Jul 21:44:05 21:47:50 31° 263° (W) 21:51:34 437.432
AUBIESAT-1 29 Jul 21:47:14 21:51:17 28° 100° (E) 21:55:17 437.475
DELFI C3 29 Jul 21:48:24 21:52:26 76° 77° (ENE) 21:56:31 145.870
RS-15 29 Jul 21:50:18 22:01:08 79° 115° (ESE) 22:12:20 29.354- 29.394
ZACube-1 29 Jul 21:58:12 22:02:21 87° 78° (ENE) 22:06:36 437.345
50 SAT 29 Jul 22:01:30 22:03:28 14° 70° (ENE) 22:05:37 437.505
VERMONT LUNAR 29 Jul 22:03:34 22:06:09 22° 2° (N) 22:08:44 437.305
ANTELSAT 29 Jul 22:04:01 22:05:07 11° 90° (E) 22:06:34 437.575/2403.000
TIGRISAT 29 Jul 22:04:04 22:04:28 10° 89° (E) 22:05:14 435.000
UWE-3 29 Jul 22:16:26 22:20:20 39° 262° (W) 22:24:18 435.000/436.395/437.385
FUNcube-1 29 Jul 22:21:18 22:25:18 48° 261° (W) 22:29:24 145.935
CUBEBUG 2 29 Jul 22:27:08 22:30:29 23° 265° (W) 22:33:47 437.445
AISAT 29 Jul 22:28:39 22:32:28 30° 72° (ENE) 22:36:21 437.250
UKube-1 29 Jul 22:39:27 22:43:43 66° 76° (ENE) 22:48:01 .
Oscar 11 29 Jul 22:40:08 22:43:06 17° 267° (W) 22:45:55 145.826/435.025
M-CUBED/EXP-1 PRIME 29 Jul 22:49:22 22:54:01 49° 290° (WNW) 22:58:31 437.505
CUBEBUG 1 29 Jul 22:51:09 22:54:53 29° 72° (ENE) 22:58:40 437.445
UNISAT 6 29 Jul 22:52:43 22:57:09 42° 98° (E) 23:01:38 437.425
DX 1 29 Jul 23:03:30 23:07:47 56° 259° (W) 23:12:02 434.975-435.025
HUMSAT D 29 Jul 23:07:03 23:10:48 33° 263° (W) 23:14:33 437.325/437.525
VELOX 1 29 Jul 23:07:50 23:12:16 86° 75° (ENE) 23:16:41 145.980
ESTCUBE 1 29 Jul 23:09:06 23:13:33 59° 75° (ENE) 23:18:01 437.505/2401.250
PHONESAT 2.4 29 Jul 23:11:24 23:14:26 26° 355° (N) 23:17:27 2401.200-2431.200
POLYITAN 1 29 Jul 23:18:46 23:22:28 28° 97° (E) 23:26:12 437.675
ISS 29 Jul 23:20:13 23:20:45 10° 334° (NNW) 23:21:12 145.825
AUBIESAT-1 29 Jul 23:21:54 23:25:51 26° 294° (WNW) 23:29:38 437.475
BEESAT 3 29 Jul 23:22:09 23:25:38 29° 113° (ESE) 23:29:11 437.485
AIST 1 29 Jul 23:24:58 23:29:02 43° 80° (E) 23:33:06
50 SAT 29 Jul 23:34:17 23:37:47 32° 263° (W) 23:41:17 437.505
POPSAT HIP 1 29 Jul 23:36:36 23:40:42 46° 99° (E) 23:44:49 437.405
TIGRISAT 29 Jul 23:37:01 23:41:39 63° 284° (WNW) 23:46:18 435.000
SPROUT 29 Jul 23:37:20 23:40:52 26° 72° (ENE) 23:44:27 437.525
ANTELSAT 29 Jul 23:37:41 23:42:19 59° 284° (WNW) 23:46:57 437.575/2403.000
VERMONT LUNAR 29 Jul 23:40:19 23:43:21 42° 19° (NNE) 23:46:21 437.305
QB50P2 29 Jul 23:43:29 23:47:43 60° 100° (E) 23:51:55 145.880/145.840
Cosmos 2491 29 Jul 23:50:57 23:59:38 69° 81° (E) 00:08:18 435.465 / 435.565
BUGSAT 1 29 Jul 23:54:30 23:58:23 44° 99° (E) 00:02:20 437.445
AIST 2 29 Jul 23:57:21 23:57:42 10° 109° (ESE) 23:58:20 435.215
TISAT 1 29 Jul 23:59:17 00:02:50 28° 72° (ENE) 00:06:28 437.305
RS-15 30 Jul 00:05:42 00:14:54 29° 320° (NW) 00:24:06 29.354- 29.394
AISAT 30 Jul 00:05:53 00:09:06 19° 266° (W) 00:12:10 437.250
YUBILEINY 30 Jul 00:08:22 00:16:23 45° 89° (E) 00:24:33 435.215
DUCHIFAT 1 30 Jul 00:11:02 00:15:15 66° 284° (WNW) 00:19:28 145.980
QB50P1 30 Jul 00:12:19 00:16:31 61° 285° (WNW) 00:20:43 145.935-145.965
NANOSAT C BR1 30 Jul 00:14:38 00:18:49 58° 285° (WNW) 00:22:58 145.865
BEESAT 2 30 Jul 00:15:38 00:19:43 83° 298° (WNW) 00:23:51 435.950
CUBEBUG 1 30 Jul 00:28:01 00:31:16 20° 266° (W) 00:34:23 437.445
UNISAT 6 30 Jul 00:30:36 00:33:38 17° 291° (WNW) 00:36:28 437.425
PHONESAT 2.4 30 Jul 00:49:48 00:52:58 31° 11° (NNE) 00:56:07 2401.200-2431.200
POLYITAN 1 30 Jul 00:55:04 00:58:11 19° 289° (WNW) 01:01:11 437.675
BEESAT 3 30 Jul 01:00:29 01:03:35 20° 308° (NW) 01:06:38 437.485
BEESAT 30 Jul 01:01:30 01:05:17 24° 70° (ENE) 01:09:11 436.000
AIST 1 30 Jul 01:05:04 01:06:18 11° 272° (W) 01:07:15
SPROUT 30 Jul 01:13:41 01:16:56 20° 266° (W) 01:20:04 437.525
POPSAT HIP 1 30 Jul 01:14:21 01:16:12 12° 291° (WNW) 01:17:50 437.405
VERMONT LUNAR 30 Jul 01:17:12 01:20:02 30° 213° (SSW) 01:22:49 437.305
SWISSCUBE 30 Jul 01:20:52 01:25:23 43° 73° (ENE) 01:29:56 437.505
AIST 2 30 Jul 01:31:40 01:35:50 56° 301° (WNW) 01:40:02 435.215
BUGSAT 1 30 Jul 01:31:59 01:33:31 12° 291° (WNW) 01:34:49 437.445
TISAT 1 30 Jul 01:35:41 01:38:39 18° 266° (W) 01:41:28 437.305
ITUPSAT 1 30 Jul 01:40:21 01:45:06 64° 75° (ENE) 01:49:53 437.325
O/OREOS (USA 219) 30 Jul 01:49:26 01:53:51 68° 108° (ESE) 01:58:19 437.305
Cosmos 2491 30 Jul 01:49:41 01:55:48 21° 276° (W) 02:01:27 435.465 / 435.565
ITAMSAT 1 30 Jul 01:56:46 01:58:06 11° 90° (E) 01:59:50 435.822/435.867
YUBILEINY 30 Jul 02:05:40 02:13:23 34° 287° (WNW) 02:20:59 435.215
Cosmos 2504 30 Jul 02:12:30 02:18:11 29° 86° (E) 02:24:22 435.465 / 435.565
STARS 30 Jul 02:14:25 02:16:00 12° 68° (ENE) 02:17:50 437.465
Oscar 19 30 Jul 02:17:13 02:22:25 89° 102° (ESE) 02:27:37 437.125/150
PHONESAT 2.4 30 Jul 02:27:39 02:31:08 75° 209° (SSW) 02:34:36 2401.200-2431.200
RS-15 30 Jul 02:30:42 02:33:07 11° 354° (N) 02:35:21 29.354- 29.394
KKS-1 30 Jul 02:32:34 02:36:33 35° 73° (ENE) 02:40:36 437.445
BEESAT 30 Jul 02:38:51 02:43:01 28° 264° (W) 02:47:07 436.000
Gurwin Techsat 1B 30 Jul 02:56:52 03:02:08 61° 101° (E) 03:07:23 435.225
SWISSCUBE 30 Jul 03:00:29 03:03:28 16° 268° (W) 03:06:15 437.505
JAS-2 30 Jul 03:09:18 03:16:16 35° 94° (E) 03:23:14 435.910
AO-7 30 Jul 03:18:01 03:22:43 17° 91° (E) 03:27:58 29.400- 29.500
ITUPSAT 1 30 Jul 03:22:32 03:23:29 10° 270° (W) 03:24:03 437.325
ITAMSAT 1 30 Jul 03:33:01 03:38:09 67° 285° (WNW) 03:43:16 435.822/435.867
HORYU 2 30 Jul 03:34:53 03:37:07 14° 92° (E) 03:39:34 437.375
JUGNU 30 Jul 03:44:10 03:47:12 14° 167° (SSE) 03:50:18 437.505
STARS 30 Jul 03:47:49 03:52:04 49° 261° (W) 03:56:18 437.465
DANDE 30 Jul 03:56:55 03:58:04 11° 98° (E) 03:59:20 436.750
Cosmos 2504 30 Jul 04:03:35 04:10:09 40° 284° (WNW) 04:17:01 435.465 / 435.565
PHONESAT 2.4 30 Jul 04:07:28 04:08:44 11° 219° (SW) 04:09:53 2401.200-2431.200
KKS-1 30 Jul 04:10:26 04:13:19 16° 267° (W) 04:16:02 437.445
ISS 30 Jul 04:11:55 04:14:18 19° 33° (NNE) 04:16:45 145.825
CUSAT 1 30 Jul 04:31:47 04:35:07 71° 98° (E) 04:37:53 437.405
Gurwin Techsat 1B 30 Jul 04:38:45 04:41:40 14° 294° (WNW) 04:44:19 435.225
MOZHAYETS 4 30 Jul 04:42:06 04:46:43 75° 258° (WSW) 04:51:23
RS-15 30 Jul 04:45:07 04:52:30 19° 30° (NNE) 05:00:34 29.354- 29.394
GONETS M04 30 Jul 04:53:15 04:57:48 16° 82° (E) 05:02:57
JAS-2 30 Jul 04:53:58 05:01:19 44° 290° (WNW) 05:08:29 435.910
CUBESAT XI-V 30 Jul 04:56:36 04:57:33 11° 67° (ENE) 04:58:49 437.345
AO-7 30 Jul 05:08:07 05:16:29 81° 288° (WNW) 05:24:46 29.400- 29.500
HORYU 2 30 Jul 05:09:43 05:14:00 43° 286° (WNW) 05:18:14 437.375
JUGNU 30 Jul 05:31:20 05:35:35 21° 177° (S) 05:39:50 437.505
SRMSAT 30 Jul 05:31:36 05:34:35 14° 167° (SSE) 05:37:39 437.500
DANDE 30 Jul 05:38:17 05:41:08 20° 280° (W) 05:43:30 436.750
ISS 30 Jul 05:47:49 05:50:50 35° 228° (SW) 05:53:50 145.825
STRAND 1 30 Jul 06:06:09 06:09:53 21° 69° (ENE) 06:13:47 437.568
CUTE-I 30 Jul 06:23:19 06:27:55 30° 96° (E) 06:32:35 437.470
CUBESAT XI-V 30 Jul 06:29:52 06:34:31 65° 260° (W) 06:39:11 437.345
GONETS M04 30 Jul 06:45:02 06:53:47 81° 278° (W) 07:02:31
RS-15 30 Jul 06:56:20 07:08:04 64° 57° (ENE) 07:20:13 29.354- 29.394
PRISM 30 Jul 06:57:22 07:01:29 57° 76° (ENE) 07:05:36 437.425
AO-7 30 Jul 07:03:38 07:08:13 15° 304° (NW) 07:12:18 29.400- 29.500
Cubesat XI-IV 30 Jul 07:06:06 07:11:27 83° 102° (ESE) 07:16:47 437.490
SRMSAT 30 Jul 07:18:52 07:23:07 21° 177° (S) 07:27:23 437.500
JUGNU 30 Jul 07:19:54 07:23:58 19° 187° (S) 07:27:59 437.505
GOMX 1 30 Jul 07:37:15 07:37:48 10° 91° (E) 07:38:43 467.674
STRAND 1 30 Jul 07:44:05 07:48:52 38° 262° (W) 07:53:37 437.568
Cosmos 2499 30 Jul 08:01:29 08:08:39 74° 94° (E) 08:16:26 435.465 / 435.565
CUTE-I 30 Jul 08:03:26 08:07:55 28° 290° (WNW) 08:12:17 437.470
SO-50 30 Jul 08:26:43 08:28:25 12° 108° (ESE) 08:30:25 436.795
AUBIESAT-1 30 Jul 08:31:49 08:34:23 17° 64° (ENE) 08:37:13 437.475
PCSat 30 Jul 08:33:13 08:37:23 24° 108° (ESE) 08:41:43 145.827
BEESAT 2 30 Jul 08:39:20 08:42:06 18° 51° (NE) 08:44:55 435.950
COMPASS 1 30 Jul 08:48:04 08:50:58 18° 93° (E) 08:54:00 437.405
GONETS M04 30 Jul 08:48:21 08:52:16 13° 298° (WNW) 08:55:26
Cubesat XI-IV 30 Jul 08:49:54 08:50:56 10° 296° (WNW) 08:51:36 437.490
BRITE-PL 30 Jul 08:50:07 08:54:26 59° 284° (WNW) 08:59:03 437.365/2234.400
CUTE 1.7 + AOD 2 30 Jul 08:58:01 09:02:05 41° 98° (E) 09:06:08 437.475
SEEDS 30 Jul 08:58:48 09:02:38 33° 97° (E) 09:06:29 437.485
HO-68 30 Jul 09:03:09 09:10:09 54° 101° (E) 09:17:10 435.675
CANX-2 30 Jul 09:05:55 09:10:10 59° 100° (E) 09:14:24 2200.000
SRMSAT 30 Jul 09:07:34 09:11:39 19° 186° (S) 09:15:43 437.500
RS-15 30 Jul 09:09:45 09:20:04 33° 253° (WSW) 09:30:09 29.354- 29.394
JUGNU 30 Jul 09:10:30 09:12:19 11° 195° (SSW) 09:14:00 437.505
DOVE 4 30 Jul 09:10:35 09:15:13 78° 102° (ESE) 09:20:08 437.250
GOMX 1 30 Jul 09:11:48 09:16:16 60° 284° (WNW) 09:21:02 467.674
BEESAT 3 30 Jul 09:21:24 09:25:26 69° 60° (ENE) 09:29:22 437.485
AAUSAT CUBESAT 2 30 Jul 09:30:26 09:34:33 52° 99° (E) 09:38:38 437.432
DELFI C3 30 Jul 09:33:02 09:35:00 14° 92° (E) 09:37:10 145.870
M-CUBED/EXP-1 PRIME 30 Jul 09:33:26 09:37:15 68° 255° (WSW) 09:41:26 437.505
CINEMA 3 30 Jul 09:35:35 09:40:15 64° 101° (E) 09:45:06 145.822/145.860
UNISAT 6 30 Jul 09:48:37 09:51:53 22° 71° (ENE) 09:55:19 437.425
ZACube-1 30 Jul 09:51:05 09:54:43 24° 95° (E) 09:58:27 437.345
AIST 2 30 Jul 09:57:28 10:01:01 27° 54° (NE) 10:04:34 435.215
Cosmos 2499 30 Jul 09:58:14 10:02:54 17° 295° (WNW) 10:07:16 435.465 / 435.565
SO-50 30 Jul 10:03:49 10:08:28 60° 302° (WNW) 10:13:17 436.795
AUBIESAT-1 30 Jul 10:05:21 10:08:50 31° 260° (W) 10:12:33 437.475
POLYITAN 1 30 Jul 10:09:30 10:11:27 13° 69° (ENE) 10:13:38 437.675
UWE-3 30 Jul 10:09:32 10:14:02 52° 100° (E) 10:18:36 435.000/436.395/437.385
FUNcube-1 30 Jul 10:13:12 10:17:31 41° 98° (E) 10:21:51 145.935
PCSat 30 Jul 10:15:35 10:20:36 38° 302° (WNW) 10:25:37 145.827
BEESAT 2 30 Jul 10:16:35 10:20:14 33° 247° (WSW) 10:23:49 435.950
CUBEBUG 2 30 Jul 10:20:33 10:25:13 88° 282° (WNW) 10:29:57 437.445
COMPASS 1 30 Jul 10:23:02 10:26:40 28° 287° (WNW) 10:30:14 437.405
YUBILEINY 30 Jul 10:25:00 10:30:05 17° 65° (ENE) 10:35:44 435.215
POPSAT HIP 1 30 Jul 10:26:12 10:29:18 21° 71° (ENE) 10:32:30 437.405
Oscar 11 30 Jul 10:29:45 10:34:06 71° 283° (WNW) 10:38:25 145.826/435.025
TIGRISAT 30 Jul 10:31:43 10:35:58 69° 76° (ENE) 10:40:20 435.000
UKube-1 30 Jul 10:32:20 10:34:42 15° 93° (E) 10:37:17 .
ANTELSAT 30 Jul 10:32:34 10:36:50 75° 78° (ENE) 10:41:15 437.575/2403.000
QB50P2 30 Jul 10:32:54 10:36:23 26° 72° (ENE) 10:39:56 145.880/145.840
CUTE 1.7 + AOD 2 30 Jul 10:35:22 10:37:39 14° 291° (WNW) 10:39:44 437.475
SEEDS 30 Jul 10:35:23 10:38:11 17° 290° (WNW) 10:40:49 437.485
BUGSAT 1 30 Jul 10:41:37 10:44:22 18° 71° (ENE) 10:47:15 437.445
HO-68 30 Jul 10:51:48 10:57:30 25° 296° (WNW) 11:03:00 435.675
HUMSAT D 30 Jul 10:54:24 10:58:37 50° 99° (E) 11:02:49 437.325/437.525
Cosmos 2491 30 Jul 10:55:53 10:59:24 14° 81° (E) 11:03:40 435.465 / 435.565
DX 1 30 Jul 10:56:00 10:59:52 32° 98° (E) 11:03:48 434.975-435.025
SRMSAT 30 Jul 10:58:11 11:00:10 12° 195° (SSW) 11:02:03 437.500
DUCHIFAT 1 30 Jul 10:59:13 11:03:15 51° 75° (ENE) 11:07:19 145.980
QB50P1 30 Jul 11:00:50 11:04:55 56° 75° (ENE) 11:09:04 145.935-145.965
NANOSAT C BR1 30 Jul 11:02:53 11:07:00 59° 75° (ENE) 11:11:07 145.865
VELOX 1 30 Jul 11:03:01 11:06:23 22° 95° (E) 11:09:51 145.980
DELFI C3 30 Jul 11:06:31 11:10:14 34° 286° (WNW) 11:13:53 145.870
ESTCUBE 1 30 Jul 11:07:02 11:09:50 17° 93° (E) 11:12:49 437.505/2401.250
AAUSAT CUBESAT 2 30 Jul 11:08:44 11:09:43 11° 292° (WNW) 11:10:26 437.432
50 SAT 30 Jul 11:13:17 11:16:57 35° 98° (E) 11:20:36 437.505
CINEMA 3 30 Jul 11:15:25 11:17:03 11° 292° (WNW) 11:18:23 145.822/145.860
UNISAT 6 30 Jul 11:24:56 11:28:34 25° 265° (W) 11:32:10 437.425
ZACube-1 30 Jul 11:27:10 11:31:00 26° 288° (WNW) 11:34:46 437.345
AIST 2 30 Jul 11:36:14 11:39:27 21° 249° (WSW) 11:42:32 435.215
POLYITAN 1 30 Jul 11:43:05 11:47:03 40° 262° (W) 11:51:00 437.675
UWE-3 30 Jul 11:47:57 11:50:11 13° 291° (WNW) 11:52:10 435.000/436.395/437.385
AIST 1 30 Jul 11:50:13 11:54:05 32° 92° (E) 11:57:59
FUNcube-1 30 Jul 11:50:44 11:53:31 16° 291° (WNW) 11:56:08 145.935
AISAT 30 Jul 11:58:55 12:03:20 74° 284° (WNW) 12:07:44 437.250
POPSAT HIP 1 30 Jul 12:01:33 12:05:03 25° 264° (W) 12:08:29 437.405
O/OREOS (USA 219) 30 Jul 12:03:18 12:07:52 67° 69° (ENE) 12:12:26 437.305
UKube-1 30 Jul 12:07:01 12:11:00 36° 287° (WNW) 12:14:56 .
QB50P2 30 Jul 12:09:07 12:12:17 20° 266° (W) 12:15:19 145.880/145.840
BUGSAT 1 30 Jul 12:16:13 12:19:41 26° 264° (W) 12:23:06 437.445
YUBILEINY 30 Jul 12:19:17 12:28:09 83° 265° (W) 12:36:59 435.215
CUBEBUG 1 30 Jul 12:19:23 12:23:43 79° 283° (WNW) 12:28:02 437.445
HUMSAT D 30 Jul 12:32:13 12:33:57 12° 292° (WNW) 12:35:28 437.325/437.525
DX 1 30 Jul 12:32:56 12:35:54 18° 290° (WNW) 12:38:43 434.975-435.025
VELOX 1 30 Jul 12:39:12 12:42:54 26° 289° (WNW) 12:46:31 145.980
ESTCUBE 1 30 Jul 12:42:45 12:46:50 35° 287° (WNW) 12:50:53 437.505/2401.250
Cosmos 2491 30 Jul 12:46:28 12:55:17 89° 90° (E) 13:04:05 435.465 / 435.565
50 SAT 30 Jul 12:49:05 12:51:14 14° 290° (WNW) 12:53:11 437.505
SPROUT 30 Jul 13:02:55 13:07:14 88° 279° (W) 13:11:32 437.525
ITAMSAT 1 30 Jul 13:10:51 13:13:00 13° 66° (ENE) 13:15:27 435.822/435.867
TISAT 1 30 Jul 13:22:26 13:26:40 87° 289° (WNW) 13:30:53 437.305
SWISSCUBE 30 Jul 13:26:35 13:29:14 15° 92° (E) 13:32:06 437.505
AIST 1 30 Jul 13:29:03 13:31:52 16° 286° (WNW) 13:34:30
Oscar 19 30 Jul 13:30:00 13:35:06 85° 74° (ENE) 13:40:15 437.125/150
ITUPSAT 1 30 Jul 13:45:47 13:49:27 23° 94° (E) 13:53:14 437.325
Cosmos 2504 30 Jul 13:52:52 14:00:59 51° 79° (ENE) 14:09:20 435.465 / 435.565
AO-7 30 Jul 14:13:27 14:18:33 19° 58° (ENE) 14:24:04 29.400- 29.500
Gurwin Techsat 1B 30 Jul 14:13:53 14:19:07 64° 75° (ENE) 14:24:24 435.225
YUBILEINY 30 Jul 14:20:16 14:23:54 12° 279° (W) 14:26:43 435.215
